Location: Ravensburg
(48.5621°N, 13.4088°E)
Time: 07:23:08
(UTC+02:00)

ISS - Visible Passes

Search period start: 29 March 2017 00:00
Search period end: 08 April 2017 00:00
Orbit: 399 x 409 km, 51.6° (Epoch: 29 March)

Date Brightness Start Highest point End Pass type
(mag) Time Alt. Az. Time Alt. Az. Time Alt. Az.
29 Mar -2.3 20:07:12 10° S 20:09:41 20° SE 20:12:11 10° E visible
29 Mar -3.2 21:42:33 10° WSW 21:45:05 51° WSW 21:45:05 51° WSW visible
30 Mar -3.8 20:50:15 10° SW 20:53:28 61° SSE 20:55:19 23° ENE visible
30 Mar -1.2 22:26:50 10° W 22:28:00 20° WNW 22:28:00 20° WNW visible
31 Mar -3.4 21:34:19 10° W 21:37:33 60° NNW 21:38:03 52° NNE visible
01 Apr -3.8 20:41:50 10° WSW 20:45:06 80° NNW 20:47:58 13° ENE visible
01 Apr -1.9 22:18:38 10° WNW 22:20:37 30° NW 22:20:37 30° NW visible
02 Apr -3.0 21:26:06 10° W 21:29:18 48° N 21:30:25 32° NE visible
02 Apr -0.5 23:02:48 10° WNW 23:03:04 12° WNW 23:03:04 12° WNW visible
03 Apr -3.3 20:33:33 10° W 20:36:46 56° NNW 20:40:01 10° ENE visible
03 Apr -2.5 22:10:20 10° WNW 22:12:46 40° NW 22:12:46 40° NW visible
04 Apr -3.0 21:17:49 10° WNW 21:21:00 47° N 21:22:25 27° ENE visible
04 Apr -0.8 22:54:23 10° WNW 22:55:04 15° WNW 22:55:04 15° WNW visible
05 Apr -3.0 20:25:16 10° W 20:28:27 47° N 20:31:38 10° ENE visible
05 Apr -3.2 22:01:55 10° WNW 22:04:40 55° NW 22:04:40 55° NW visible
06 Apr -3.3 21:09:26 10° WNW 21:12:39 54° N 21:14:15 26° ENE visible
06 Apr -1.1 22:45:57 10° WNW 22:46:54 17° W 22:46:54 17° W visible
07 Apr -3.1 20:16:54 10° WNW 20:20:05 47° N 20:23:16 10° E visible
07 Apr -3.7 21:53:25 10° WNW 21:56:28 71° WSW 21:56:28 71° WSW visible
